Home   Weather   MD of Lunenburg   Past weeks

Flag for Canada Past Weather in MD of Lunenburg, Nova Scotia, Canada — Yesterday and Last 2 Weeks

Now
38 °F

Chilly.


Feels Like: 30 °F
Forecast: N/A
Wind: 12 mph from West

Location: McNabs Island - AUT

Current Time: Feb 26, 2017 at 7:46:21 pm

Latest Report: Feb 26, 2017 at 6:00 pm


Visibility: N/A

Pressure: 29.64 "Hg

Humidity: 64%

Dew Point: 26 °F

Location of MD of LunenburgLocation

Past Weather in MD of Lunenburg — Graph

°F

MD of Lunenburg Temperature Yesterday

Maximum temperature yesterday: 43 °F (at 10:00 pm)
Minimum temperature yesterday: 36 °F (at 4:00 am)
Average temperature yesterday: 40 °F

High & Low Weather Summary for the Past Weeks

 TemperatureHumidityPressure
High48 °F (Feb 24, 2:00 pm)100% (Feb 13, 5:00 am)30.99 "Hg (Feb 13, 5:00 am)
Low12 °F (Feb 12, 6:00 am)49% (Feb 21, 5:00 pm)28.14 "Hg (Feb 13, 12:00 pm)
Average31 °F85%29.72 "Hg
* Reported Feb 11 6:00 pm — Feb 26 6:00 pm, MD of Lunenburg, Weather by CustomWeather, © 2017

Note: Actual official high and low records may vary slightly from our data, if they occured in-between our weather recording intervals... More about our weather records

Advertising

MD of Lunenburg Weather History for the Previous 24 Hours

Scroll right to see more
 ConditionsComfort  
Time TempWeatherWind HumidityBarometerVisibility
6:00 pm
Sun, Feb 26
38 °FChilly.12 mph64%29.64 "HgN/A
5:00 pm41 °FQuite cool.12 mph60%29.59 "HgN/A
4:00 pm43 °FQuite cool.23 mph58%29.55 "HgN/A
3:00 pm45 °FQuite cool.20 mph66%29.52 "HgN/A
2:00 pm44 °FQuite cool.10 mph78%29.48 "HgN/A
1:00 pm47 °FCool.12 mph78%29.44 "HgN/A
12:00 pm46 °FCool.17 mph97%29.42 "HgN/A
11:00 am42 °FQuite cool.23 mph98%29.40 "HgN/A
10:00 am40 °FQuite cool.21 mph98%29.37 "HgN/A
9:00 am42 °FQuite cool.9 mph98%29.37 "HgN/A
8:00 am39 °FChilly.6 mph98%29.33 "HgN/A
7:00 am41 °FQuite cool.2 mph98%29.33 "HgN/A
6:00 am44 °FQuite cool.5 mph98%29.31 "HgN/A
5:00 am42 °FQuite cool.16 mph98%29.33 "HgN/A
4:00 am44 °FQuite cool.29 mph92%29.32 "HgN/A
3:00 am45 °FCool.29 mph98%29.36 "HgN/A
2:00 am42 °FQuite cool.25 mph100%29.47 "HgN/A
1:00 am44 °FQuite cool.14 mph98%29.57 "HgN/A
12:00 am42 °FQuite cool.12 mph98%29.66 "HgN/A
11:00 pm
Sat, Feb 25
39 °FChilly.7 mph98%29.72 "HgN/A
10:00 pm43 °FQuite cool.6 mph98%29.77 "HgN/A
9:00 pm42 °FQuite cool.10 mph98%29.82 "HgN/A
8:00 pm41 °FQuite cool.9 mph98%29.86 "HgN/A
7:00 pm41 °FQuite cool.9 mph98%29.90 "HgN/A
Weather by CustomWeather, © 2017

See weather overviewHow to use our weather pages